Location: Rokycany
(49.7330°N, 13.6000°E)
Time: 02:01:35
(UTC+02:00)

ISS - Pass Details

Date: 24 March 2019
Orbit: 408 x 410 km, 51.6° (Epoch: 24 April)

Event Time Altitude Azimuth Distance (km) Brightness Sun altitude
Rises 19:27:09 0° 229° (SW) 2,327 0.5 -10.8°
Reaches altitude 10° 19:29:17 10° 222° (SW) 1,469 -0.7 -11.2°
Maximum altitude 19:32:25 41° 150° (SSE) 608 -3.3 -11.7°
Enters shadow 19:34:21 19° 89° (E) 1,032 -2.4 -12.0°
